KKB525 KATL-KACJ

Flight info

Callsign KKB525
Flight time 0h 37m
Altitude 6000
Route SOTWO PRATZ
Aircraft BE58/L-SDFGRY/C

Departure

Time 2026-05-07 22:02
Airport Hartsfield Jackson Atlanta International Airport (KATL)

Arrival

Time 2026-05-07 22:39
Airport Jimmy Carter Regional Airport (KACJ)
Time Latitude Longitude Altitude Speed Heading
2026-05-07 21:54 33.65229 -84.42474 1019 ft 0 kts 268°
2026-05-07 21:56 33.65223 -84.42493 1019 ft 0 kts 250°
2026-05-07 21:58 33.65220 -84.42503 1019 ft 4 kts 252°
2026-05-07 21:58 33.65211 -84.42540 1019 ft 3 kts 254°
2026-05-07 21:58 33.65205 -84.42566 1019 ft 2 kts 238°
2026-05-07 21:59 33.65193 -84.42576 1019 ft 1 kts 195°
2026-05-07 21:59 33.65175 -84.42579 1019 ft 3 kts 191°
2026-05-07 21:59 33.65167 -84.42581 1019 ft 0 kts 192°
2026-05-07 21:59 33.65158 -84.42583 1019 ft 2 kts 193°
2026-05-07 22:00 33.65124 -84.42590 1019 ft 7 kts 185°
2026-05-07 22:00 33.65071 -84.42557 1019 ft 11 kts 110°
2026-05-07 22:00 33.65065 -84.42447 1019 ft 15 kts 90°
2026-05-07 22:00 33.65064 -84.42310 1019 ft 17 kts 93°
2026-05-07 22:01 33.64984 -84.42237 1009 ft 19 kts 183°
2026-05-07 22:01 33.64953 -84.42407 1010 ft 53 kts 270°
2026-05-07 22:01 33.64945 -84.43078 1085 ft 96 kts 271°
2026-05-07 22:01 33.64852 -84.43906 1431 ft 102 kts 269°
2026-05-07 22:02 33.64809 -84.44774 1762 ft 104 kts 271°
2026-05-07 22:02 33.64780 -84.45634 2088 ft 103 kts 271°
2026-05-07 22:02 33.64822 -84.46471 2415 ft 100 kts 293°
2026-05-07 22:02 33.65323 -84.47017 2720 ft 104 kts 337°
2026-05-07 22:03 33.66073 -84.46922 3004 ft 117 kts 21°
2026-05-07 22:03 33.66624 -84.46172 3276 ft 127 kts 58°
2026-05-07 22:03 33.66973 -84.45194 3546 ft 129 kts 62°
2026-05-07 22:03 33.67228 -84.44144 3816 ft 135 kts 88°
2026-05-07 22:04 33.66942 -84.43082 4087 ft 137 kts 133°
2026-05-07 22:04 33.66187 -84.42447 4343 ft 133 kts 170°
2026-05-07 22:04 33.65305 -84.42100 4637 ft 134 kts 173°
2026-05-07 22:04 33.64406 -84.41763 4945 ft 135 kts 173°
2026-05-07 22:05 33.63512 -84.41525 5244 ft 130 kts 185°
2026-05-07 22:05 33.62605 -84.41382 5502 ft 134 kts 185°
2026-05-07 22:05 33.61670 -84.41237 5767 ft 136 kts 186°
2026-05-07 22:05 33.60712 -84.41094 5951 ft 144 kts 186°
2026-05-07 22:06 33.59655 -84.40942 5983 ft 162 kts 185°
2026-05-07 22:06 33.58489 -84.40766 5974 ft 172 kts 184°
2026-05-07 22:06 33.57273 -84.40579 5971 ft 177 kts 184°
2026-05-07 22:06 33.56035 -84.40390 5969 ft 180 kts 183°
2026-05-07 22:07 33.54778 -84.40199 5972 ft 183 kts 183°
2026-05-07 22:07 33.53494 -84.40005 5973 ft 185 kts 183°
2026-05-07 22:07 33.52216 -84.39812 5974 ft 186 kts 183°
2026-05-07 22:07 33.50929 -84.39618 5973 ft 187 kts 183°
2026-05-07 22:08 33.49634 -84.39423 5973 ft 188 kts 182°
2026-05-07 22:08 33.48323 -84.39226 5975 ft 189 kts 182°
2026-05-07 22:08 33.47022 -84.39030 5974 ft 191 kts 183°
2026-05-07 22:08 33.45692 -84.38830 5975 ft 191 kts 183°
2026-05-07 22:09 33.44366 -84.38630 5974 ft 192 kts 183°
2026-05-07 22:09 33.43049 -84.38432 5976 ft 192 kts 182°
2026-05-07 22:09 33.41723 -84.38232 5977 ft 192 kts 183°
2026-05-07 22:09 33.40376 -84.38030 5976 ft 192 kts 182°
2026-05-07 22:10 33.39049 -84.37831 5973 ft 193 kts 182°
2026-05-07 22:10 33.37717 -84.37631 5976 ft 193 kts 182°
2026-05-07 22:10 33.36378 -84.37430 5977 ft 192 kts 183°
2026-05-07 22:10 33.35045 -84.37230 5976 ft 193 kts 182°
2026-05-07 22:11 33.33715 -84.37030 5976 ft 193 kts 183°
2026-05-07 22:11 33.32386 -84.36831 5977 ft 192 kts 182°
2026-05-07 22:11 33.31056 -84.36631 5975 ft 193 kts 183°
2026-05-07 22:11 33.29729 -84.36433 5975 ft 193 kts 182°
2026-05-07 22:12 33.28395 -84.36232 5975 ft 193 kts 183°
2026-05-07 22:12 33.27052 -84.36031 5973 ft 193 kts 182°
2026-05-07 22:12 33.25724 -84.35833 5970 ft 193 kts 182°
2026-05-07 22:12 33.24389 -84.35632 5967 ft 193 kts 183°
2026-05-07 22:13 33.23047 -84.35432 5966 ft 193 kts 182°
2026-05-07 22:13 33.21717 -84.35232 5966 ft 192 kts 182°
2026-05-07 22:13 33.20394 -84.35035 5962 ft 192 kts 183°
2026-05-07 22:13 33.19051 -84.34834 5959 ft 192 kts 183°
2026-05-07 22:14 33.17730 -84.34637 5958 ft 192 kts 182°
2026-05-07 22:14 33.16412 -84.34439 5956 ft 192 kts 182°
2026-05-07 22:14 33.15076 -84.34240 5956 ft 192 kts 183°
2026-05-07 22:14 33.13750 -84.34042 5956 ft 192 kts 183°
2026-05-07 22:15 33.12419 -84.33844 5954 ft 192 kts 182°
2026-05-07 22:15 33.11095 -84.33646 5959 ft 191 kts 183°
2026-05-07 22:15 33.09783 -84.33450 5961 ft 191 kts 183°
2026-05-07 22:15 33.08460 -84.33253 5962 ft 191 kts 183°
2026-05-07 22:16 33.07137 -84.33057 5964 ft 191 kts 183°
2026-05-07 22:16 33.05806 -84.32858 5968 ft 191 kts 183°
2026-05-07 22:16 33.04480 -84.32660 5964 ft 191 kts 183°
2026-05-07 22:16 33.03165 -84.32464 5966 ft 191 kts 183°
2026-05-07 22:17 33.01831 -84.32265 5964 ft 191 kts 183°
2026-05-07 22:17 33.00514 -84.32069 5980 ft 190 kts 183°
2026-05-07 22:17 32.99202 -84.31874 5992 ft 190 kts 183°
2026-05-07 22:17 32.97889 -84.31678 5992 ft 190 kts 183°
2026-05-07 22:18 32.96583 -84.31485 5991 ft 190 kts 184°
2026-05-07 22:18 32.93944 -84.31092 5993 ft 190 kts 183°
2026-05-07 22:18 32.92648 -84.30899 5993 ft 190 kts 183°
2026-05-07 22:19 32.91330 -84.30704 5993 ft 190 kts 183°
2026-05-07 22:19 32.90015 -84.30508 5995 ft 190 kts 183°
2026-05-07 22:19 32.88696 -84.30312 5993 ft 190 kts 183°
2026-05-07 22:19 32.87375 -84.30116 5991 ft 190 kts 183°
2026-05-07 22:20 32.86067 -84.29922 5990 ft 190 kts 183°
2026-05-07 22:20 32.84761 -84.29728 5985 ft 190 kts 184°
2026-05-07 22:20 32.83452 -84.29533 5986 ft 189 kts 184°
2026-05-07 22:20 32.82138 -84.29339 5989 ft 189 kts 184°
2026-05-07 22:21 32.80824 -84.29144 5985 ft 189 kts 183°
2026-05-07 22:21 32.79517 -84.28951 5984 ft 189 kts 184°
2026-05-07 22:21 32.78213 -84.28758 5983 ft 189 kts 184°
2026-05-07 22:21 32.76901 -84.28564 5980 ft 189 kts 183°
2026-05-07 22:22 32.75591 -84.28369 5980 ft 189 kts 184°
2026-05-07 22:22 32.74281 -84.28175 5981 ft 189 kts 184°
2026-05-07 22:22 32.72960 -84.27980 5981 ft 189 kts 184°
2026-05-07 22:22 32.71662 -84.27788 5982 ft 189 kts 184°
2026-05-07 22:23 32.70338 -84.27593 5980 ft 190 kts 184°
2026-05-07 22:23 32.69034 -84.27399 5981 ft 189 kts 184°
2026-05-07 22:23 32.67712 -84.27204 5984 ft 189 kts 183°
2026-05-07 22:23 32.66408 -84.27011 5983 ft 189 kts 184°
2026-05-07 22:24 32.65102 -84.26818 5982 ft 189 kts 184°
2026-05-07 22:24 32.63791 -84.26625 5985 ft 189 kts 184°
2026-05-07 22:24 32.62478 -84.26431 5984 ft 189 kts 183°
2026-05-07 22:24 32.61166 -84.26238 5985 ft 189 kts 184°
2026-05-07 22:25 32.59861 -84.26045 5986 ft 189 kts 184°
2026-05-07 22:25 32.58543 -84.25851 5984 ft 189 kts 184°
2026-05-07 22:25 32.57236 -84.25658 5984 ft 189 kts 184°
2026-05-07 22:25 32.55963 -84.25110 5986 ft 203 kts 159°
2026-05-07 22:26 32.54767 -84.24181 5986 ft 206 kts 153°
2026-05-07 22:26 32.53604 -84.23186 5985 ft 206 kts 152°
2026-05-07 22:26 32.52444 -84.22171 5985 ft 207 kts 152°
2026-05-07 22:26 32.51286 -84.21151 5985 ft 207 kts 152°
2026-05-07 22:27 32.50130 -84.20132 5984 ft 207 kts 152°
2026-05-07 22:27 32.48977 -84.19115 5984 ft 207 kts 152°
2026-05-07 22:27 32.47816 -84.18090 5983 ft 207 kts 152°
2026-05-07 22:27 32.46670 -84.17080 5986 ft 207 kts 152°
2026-05-07 22:28 32.45523 -84.16069 5989 ft 207 kts 152°
2026-05-07 22:28 32.44359 -84.15044 5989 ft 207 kts 152°
2026-05-07 22:28 32.43200 -84.14021 5985 ft 207 kts 152°
2026-05-07 22:28 32.42043 -84.13004 5984 ft 207 kts 152°
2026-05-07 22:29 32.40888 -84.11987 5984 ft 207 kts 152°
2026-05-07 22:29 32.39732 -84.10970 5985 ft 207 kts 152°
2026-05-07 22:29 32.38576 -84.09952 5983 ft 207 kts 152°
2026-05-07 22:29 32.37417 -84.08933 5983 ft 207 kts 152°
2026-05-07 22:30 32.36267 -84.07922 5912 ft 207 kts 152°
2026-05-07 22:30 32.35111 -84.06905 5781 ft 204 kts 152°
2026-05-07 22:30 32.33970 -84.05902 5643 ft 203 kts 153°
2026-05-07 22:30 32.32846 -84.04916 5508 ft 201 kts 152°
2026-05-07 22:31 32.31721 -84.03928 5372 ft 201 kts 153°
2026-05-07 22:31 32.30596 -84.02940 5230 ft 199 kts 152°
2026-05-07 22:31 32.29478 -84.01961 5018 ft 201 kts 152°
2026-05-07 22:31 32.28341 -84.00964 4810 ft 202 kts 152°
2026-05-07 22:32 32.27102 -84.00415 4572 ft 183 kts 191°
2026-05-07 22:32 32.26001 -84.00901 4354 ft 164 kts 225°
2026-05-07 22:32 32.25167 -84.01753 4141 ft 154 kts 232°
2026-05-07 22:32 32.24442 -84.02633 3960 ft 145 kts 233°
2026-05-07 22:33 32.23751 -84.03474 3782 ft 139 kts 233°
2026-05-07 22:33 32.23087 -84.04282 3603 ft 135 kts 233°
2026-05-07 22:33 32.22437 -84.05069 3429 ft 132 kts 233°
2026-05-07 22:33 32.21806 -84.05834 3264 ft 130 kts 233°
2026-05-07 22:34 32.21173 -84.06600 3096 ft 129 kts 233°
2026-05-07 22:34 32.20545 -84.07361 2924 ft 128 kts 233°
2026-05-07 22:34 32.19924 -84.08111 2753 ft 127 kts 233°
2026-05-07 22:34 32.19306 -84.08858 2593 ft 128 kts 231°
2026-05-07 22:35 32.18679 -84.09614 2422 ft 128 kts 231°
2026-05-07 22:35 32.18064 -84.10356 2266 ft 122 kts 232°
2026-05-07 22:35 32.17505 -84.11029 2108 ft 109 kts 232°
2026-05-07 22:35 32.16994 -84.11648 1956 ft 102 kts 232°
2026-05-07 22:36 32.16506 -84.12238 1821 ft 98 kts 233°
2026-05-07 22:36 32.16028 -84.12814 1691 ft 98 kts 232°
2026-05-07 22:36 32.15545 -84.13398 1560 ft 99 kts 231°
2026-05-07 22:36 32.15060 -84.13982 1427 ft 100 kts 230°
2026-05-07 22:37 32.14569 -84.14574 1303 ft 101 kts 231°
2026-05-07 22:37 32.14076 -84.15169 1170 ft 103 kts 230°
2026-05-07 22:37 32.13573 -84.15775 1042 ft 104 kts 230°
2026-05-07 22:37 32.13065 -84.16386 900 ft 104 kts 228°
2026-05-07 22:38 32.12555 -84.17001 777 ft 104 kts 227°
2026-05-07 22:38 32.12053 -84.17607 632 ft 100 kts 227°
2026-05-07 22:38 32.11594 -84.18156 487 ft 89 kts 228°
2026-05-07 22:38 32.11211 -84.18610 460 ft 56 kts 229°
2026-05-07 22:39 32.11102 -84.18686 458 ft 9 kts 134°
2026-05-07 22:39 32.11050 -84.18627 457 ft 10 kts 134°
2026-05-07 22:39 32.11053 -84.18581 457 ft 6 kts 39°
2026-05-07 22:39 32.11059 -84.18542 457 ft 1 kts 94°
2026-05-07 22:40 32.11059 -84.18541 457 ft 0 kts 94°